Regional Weather Roundup
Issued by NWS Kansas City/Pleasant Hill, MO

Home | Current Version | Previous Version | Graphics & Text | Print | Product List | Glossary Off
Versions: 1 2 3 4 5 6 7 8 9 10 11 12 13 14 15 16 17 18 19 20 21 22 23 24 25 26 27 28 29 30 31 32 33 34 35 36 37 38 39 40 41 42 43 44 45 46 47 48 49 50

000
ASUS43 KEAX 280604
RWREAX

WEATHER ROUNDUP FOR EASTERN KANSAS AND NORTHWEST MISSOURI
NATIONAL WEATHER SERVICE KANSAS CITY/PLEASANT HILL MO
1200 AM CST FRI NOV 28 2014

KSZ040-057-103>105-MOZ028-029-037-043-280700-
...KANSAS CITY METROPOLITAN AREA...

CITY           SKY/WX    TMP DP  RH WIND       PRES   REMARKS
K.C. INTL      CLEAR     31  23  72 SE15      30.22F WCI  20
6HR MIN TEMP:  27; 6HR MAX TEMP:  31;

K.C. DOWNTOWN  CLEAR     32  23  69 S8        30.24F WCI  25
6HR MIN TEMP:  32; 6HR MAX TEMP:  34;

LEES SUMMIT    CLEAR     30  22  72 S7        30.25F WCI  23
6HR MIN TEMP:  30; 6HR MAX TEMP:  35;

OLATHE - IXD   CLEAR     30  22  72 SE10      30.23F WCI  21
6HR MIN TEMP:  29; 6HR MAX TEMP:  35;

OLATHE - OJC   CLEAR     30  22  72 SE10      30.23F WCI  21
6HR MIN TEMP:  29; 6HR MAX TEMP:  35;

LAWRENCE       CLEAR     27  22  81 SE8       30.23F WCI  19

$$

MOZ001>008-011>017-020>025-030>033-038>040-044>046-053-054-280700-
...NORTHERN AND CENTRAL MISSOURI...

CITY           SKY/WX    TMP DP  RH WIND       PRES   REMARKS
ST. JOSEPH     CLEAR     28  22  78 SE7       30.23F WCI  21
6HR MIN TEMP:  27; 6HR MAX TEMP:  30;

MOSBY          CLEAR     30  25  80 SE6       30.25F WCI  24
WHITEMAN AFB   CLEAR     29  23  79 SE7       30.28F WCI  22
6HR MIN TEMP:  28; 6HR MAX TEMP:  31;

CLINTON        CLEAR     32  27  80 SE5       30.31F WCI  27
SEDALIA        CLEAR     29  24  82 SE7       30.32F WCI  22
6HR MIN TEMP:  29; 6HR MAX TEMP:  32;

WARSAW         NOT AVBL
MARSHALL       CLEAR     30  27  86 SE6       30.32F WCI  24
CHILLICOTHE      N/A     28  21  75 SE7       30.30F WCI  21
6HR MIN TEMP:  28; 6HR MAX TEMP:  29;

KIRKSVILLE     MOCLDY    20  15  81 SE10      30.32F WCI   9
6HR MIN TEMP:  19; 6HR MAX TEMP:  21;


$$

MOZ041-047>049-056>058-063>065-088>090-097-280700-
...EASTERN AND SOUTHERN MISSOURI...

CITY           SKY/WX    TMP DP  RH WIND       PRES   REMARKS
ST. LOUIS INTL CLOUDY    26  19  74 E10       30.42F WCI  16
6HR MIN TEMP:  24; 6HR MAX TEMP:  29;

SPIRIT OF STL  MOCLDY    28  19  69 SE6       30.40F WCI  22
COLUMBIA       MOCLDY    30  24  78 SE7       30.33F WCI  23
JEFFERSON CITY PTCLDY    30  25  81 SE6       30.36F WCI  24
MEXICO         MOCLDY    28  25  86 SE6       30.34F WCI  22
ROLLA          PTCLDY    29  22  75 SE10      30.32F WCI  20
LEBANON        CLEAR     30  23  74 SE7       30.32F WCI  23
OSAGE BEACH    CLEAR     30  21  69 SE3       30.33F
SPRINGFIELD    CLEAR     33  22  63 S13       30.29F WCI  24
NEVADA         CLEAR     30  23  74 SE5       30.29F WCI  25
JOPLIN         CLEAR     33  22  63 S9        30.28F WCI  25
WEST PLAINS    CLEAR     31  20  63 SE5       30.35F WCI  26

$$

IAZ060-094-KSZ022-034>040-054-083-096-NEZ052-066-093-280700-
...KANSAS...SOUTHEAST NEBRASKA AND IOWA...

CITY           SKY/WX    TMP DP  RH WIND       PRES   REMARKS
TOPEKA         CLEAR     30  21  69 E6        30.21F WCI  24
6HR MIN TEMP:  30; 6HR MAX TEMP:  35;

MANHATTAN      CLEAR     34  22  61 S8        30.14F WCI  27
EMPORIA        CLEAR     31  22  69 SE12      30.18F WCI  22
CHANUTE        CLEAR     30  24  78 SE8       30.23F WCI  22
WICHITA        CLEAR     37  23  56 S14       30.14F WCI  28
OMAHA          CLEAR     25  18  74 SE17      30.14F WCI  12
LINCOLN        CLEAR     27  18  69 S10       30.08F WCI  17
FALLS CITY     CLEAR     27  22  81 S14       30.16F WCI  16
LAMONI         MOCLDY    23  18  81 SE6       30.26R WCI  16
DES MOINES     MOCLDY    14   5  67 SE10      30.27F WCI   1

$$




USA.gov is the U.S. government's official web portal to all federal, state and local government web resources and services.